Regional Weather Roundup
Issued by NWS

Home | Current Version | Previous Version | Text Only | Print | Product List | Glossary Off
Versions: 1 2 3 4 5 6 7 8 9 10 11 12 13 14 15 16 17 18 19 20 21 22 23 24 25 26 27 28 29 30 31 32 33 34 35 36 37 38 39 40 41 42 43 44 45 46 47 48 49 50

000
ASUS43 KDMX 090508
RWRIA

WEATHER ROUNDUP FOR IOWA
NATIONAL WEATHER SERVICE DES MOINES IA
1100 PM CST MON FEB 08 2016

NOTE: "FAIR" INDICATES FEW OR NO CLOUDS BELOW 12,000 FEET WITH NO
SIGNIFICANT WEATHER AND/OR OBSTRUCTIONS TO VISIBILITY.

* - THESE STATIONS ARE NOT NWS STATIONS...THUS NOT UNDER NWS
QUALITY CONTROL.  THEY ALSO DO NOT REPORT WEATHER SUCH
AS PRECIPITATION OR FOG.

IAZ001>003-012>014-020>022-031>034-043>046-090600-
   NORTHWEST IOWA

CITY           SKY/WX    TMP DP  RH WIND       PRES   REMARKS
CARROLL *      FLURRIES  14  10  85 NW23G31   30.03S WCI  -5
CHEROKEE *     MOCLDY    15  10  81 N17G28    30.08S WCI  -1
DENISON *      PTCLDY    19  12  73 N21G28    30.04S WCI   3
LE MARS *      CLEAR     19  14  79 N16G23    30.11F WCI   5
ORANGE CITY *  PTCLDY    16  10  79 N15G23    30.07F WCI   1
SHELDON *      LGT SNOW  12  10  92 N22G29    30.06S WCI  -7
SIOUX CITY     CLOUDY    24  11  57 N31G44    30.09S WCI   7
SPENCER        HVY SNOW   9   4  80 N31G41    30.05R VSB 1/4 WCI -14
STORM LAKE *   FLURRIES  14  10  85 N28G33    30.02F WCI  -6
$$

IAZ055>058-069>071-079>083-090>094-090600-
   SOUTHWEST IOWA

CITY           SKY/WX    TMP DP  RH WIND       PRES   REMARKS
ATLANTIC *     CLEAR     19  14  79 N17G25    30.05S WCI   4
AUDUBON *      PTCLDY    16  12  86 NW9G16    30.04S WCI   4
CLARINDA *     CLEAR     23  16  74 NW10G17   30.08F WCI  12
COUNCIL BLFS * CLEAR     23  16  74 N17       30.07S WCI   9
CRESTON *      MOCLDY    18  10  73 N24G30    30.02S WCI   0
HARLAN  *      CLEAR     21  14  73 N28G33    30.08S WCI   3
LAMONI         CLOUDY    18  10  71 NW20G29   30.00S WCI   2
RED OAK *      PTCLDY    25  16  68 N14G21    30.07S WCI  13
SHENANDOAH *   PTCLDY    27  19  74 NW13G18   30.09S WCI  16
$$

IAZ047>049-059>061-072>074-084-090600-
   CENTRAL IOWA

CITY           SKY/WX    TMP DP  RH WIND       PRES   REMARKS
AMES           CLOUDY    14   7  73 N21G29    30.00R WCI  -4
ANKENY *       CLOUDY    16   7  67 N21G31    30.01R WCI  -2
BOONE *        CLOUDY    14   5  67 NW26G37   29.99R WCI  -6
CHARITON *     FLURRIES  16   7  67 NW24G32   29.97S WCI  -3
DES MOINES     FLURRIES  16   5  62 NW16G24   30.01R WCI   1
GRINNELL*      LGT SNOW  16  10  79 NW24      29.94S WCI  -3
KNOXVILLE *    CLOUDY    16   9  73 NW22G30   29.96S WCI  -2
MARSHALLTOWN   FLURRIES  13   8  81 NW23G32   29.95S WCI  -6
NEWTON *       LGT SNOW  16  10  79 NW26G35   29.97R WCI  -3
PELLA *        LGT SNOW  17  12  82 NW18G24   29.98S WCI   1
$$

IAZ004>006-015-016-023>025-035-036-090600-
   NORTH CENTRAL IOWA

CITY           SKY/WX    TMP DP  RH WIND       PRES   REMARKS
ALGONA *       CLOUDY    10   5  79 NW35G43   29.99S WCI -13
CLARION *      FLURRIES  12   5  73 N29G38    29.97S WCI  -9
ESTHERVILLE    CLOUDY     8   2  76 NW31G38   30.02S WCI -15
FORT DODGE *   CLOUDY    12   1  62 N22G35    30.01R WCI  -7
MASON CITY     LGT SNOW  11   7  84 NW25      29.95R FOG     WCI -10
FOREST CITY *    N/A     10   5  79 NW22G31   29.95R WCI  -9
WEBSTER CITY * LGT SNOW  12   7  79 NW30G40   29.98R WCI  -9
IOWA FALLS *   CLOUDY    13   8  79 NW25G33   29.96S WCI  -6
$$

IAZ007>011-017>019-026>030-037>042-050>054-066-090600-
   NORTHEAST IOWA

CITY           SKY/WX    TMP DP  RH WIND       PRES   REMARKS
CEDAR RAPIDS   LGT SNOW  15  12  88 NW17      29.88F FOG     WCI  -1
CHARLES CITY * LGT SNOW  14  10  85 NW21      29.91R WCI  -4
CLINTON *      FLURRIES  17  10  74 NW18      29.85S WCI   1
DECORAH *      FLURRIES  12   7  79 N17G25    29.85S WCI  -5
DUBUQUE        CLOUDY    14   8  77 N20G26    29.82F WCI  -3
MONTICELLO *   LGT SNOW  16  10  79 NW14      29.86F WCI   1
OELWEIN *      FLURRIES  14  10  85 NW16      29.88S WCI  -2
WATERLOO       LGT SNOW  14   9  80 NW22      29.91S WCI  -4
$$

IAZ064-065-067-068-078-090600-
   EAST CENTRAL IOWA

CITY           SKY/WX    TMP DP  RH WIND       PRES   REMARKS
DAVENPORT      FLURRIES  17  10  74 NW17      29.86S WCI   1
IOWA CITY      LGT SNOW  17  11  77 NW12      29.92F WCI   4
MT. PLEASANT * LGT SNOW  19  15  82 NW15G21   29.92S WCI   5
MUSCATINE *    LGT SNOW  18  12  79 NW16G23   29.91F WCI   3
QUAD CITIES    FLURRIES  18  10  71 NW14      29.86F WCI   4
$$

IAZ062-063-075>077-085>089-095>099-090600-
   SOUTHEAST IOWA

CITY           SKY/WX    TMP DP  RH WIND       PRES   REMARKS
BURLINGTON     CLOUDY    17  11  77 NW17G23   29.89F WCI   1
FAIRFIELD *    FLURRIES  18  10  73 NW22G29   29.92F WCI   0
FORT MADISON * LGT SNOW  18  12  79 NW14      29.91F WCI   4
KEOKUK *       LGT SNOW  19  14  79 NW12      29.92F WCI   7
OSKALOOSA *    LGT SNOW  17  12  82 NW21G30   29.95S WCI   0
CENTERVILLE *  FLURRIES  19  14  79 NW15      29.96F WCI   5
OTTUMWA        CLOUDY    18  12  77 NW22G32   29.94F WCI   1
WASHINGTON *   LGT SNOW  18  12  79 NW17G25   29.93S WCI   2
$$

ABBREVIATIONS USED IN REMARKS
   TC - TEMPERATURES IN CELSIUS
  WCI - WIND CHILL INDEX
   HX - HEAT INDEX
  VSB - VISIBILITY
$$




USA.gov is the U.S. government's official web portal to all federal, state and local government web resources and services.